Time,TemperatureF,DewpointF,PressureIn,WindDirection,WindDirectionDegrees,WindSpeedMPH,WindSpeedGustMPH,Humidity,HourlyPrecipIn,Conditions,Clouds,dailyrainin,SoftwareType,DateUTC
2013-05-19 00:00:00,65.0,60.7,30.12,SSW,202,0.0,6.0,86,0.00,,,-99.99,Weather View 32 v60,2013-05-19 05:00:00,
2013-05-19 00:30:00,65.0,61.0,30.12,SW,225,0.0,4.0,87,0.00,,,-99.99,Weather View 32 v60,2013-05-19 05:30:00,
2013-05-19 01:00:00,64.0,60.4,30.13,SW,225,0.0,1.0,88,0.00,,,-99.99,Weather View 32 v60,2013-05-19 06:00:00,
2013-05-19 01:30:00,64.0,60.7,30.12,South,180,0.0,1.0,89,0.00,,,-99.99,Weather View 32 v60,2013-05-19 06:30:00,
2013-05-19 02:00:00,63.0,60.0,30.11,South,180,0.0,3.0,90,0.00,,,-99.99,Weather View 32 v60,2013-05-19 07:00:00,
2013-05-19 02:30:00,62.0,59.3,30.11,SW,225,0.0,3.0,91,0.00,,,-99.99,Weather View 32 v60,2013-05-19 07:30:00,
2013-05-19 03:00:00,62.0,59.6,30.12,West,270,0.0,1.0,92,0.00,,,-99.99,Weather View 32 v60,2013-05-19 08:00:00,
2013-05-19 03:30:00,62.0,59.6,30.13,SW,225,0.0,0.0,92,0.00,,,-99.99,Weather View 32 v60,2013-05-19 08:30:00,
2013-05-19 04:00:00,61.0,59.0,30.14,South,180,0.0,0.0,93,0.00,,,-99.99,Weather View 32 v60,2013-05-19 09:00:00,
2013-05-19 04:30:00,61.0,59.3,30.13,SW,225,0.0,0.0,94,0.00,,,-99.99,Weather View 32 v60,2013-05-19 09:30:00,
2013-05-19 05:00:00,61.0,59.6,30.12,SW,225,0.0,0.0,95,0.00,,,-99.99,Weather View 32 v60,2013-05-19 10:00:00,
2013-05-19 05:30:00,62.0,60.5,30.13,SW,225,0.0,4.0,95,0.00,,,-99.99,Weather View 32 v60,2013-05-19 10:30:00,
2013-05-19 06:00:00,62.0,60.5,30.14,SSE,158,0.0,4.0,95,0.00,,,-99.99,Weather View 32 v60,2013-05-19 11:00:00,
2013-05-19 06:30:00,63.0,61.5,30.14,South,180,0.0,0.0,95,0.00,,,-99.99,Weather View 32 v60,2013-05-19 11:30:00,
2013-05-19 07:00:00,64.0,62.2,30.14,WSW,248,0.0,3.0,94,0.00,,,-99.99,Weather View 32 v60,2013-05-19 12:00:00,
2013-05-19 07:30:00,66.0,63.9,30.14,South,180,0.0,3.0,93,0.00,,,-99.99,Weather View 32 v60,2013-05-19 12:30:00,
2013-05-19 08:00:00,69.0,65.3,30.14,SW,225,0.0,5.0,88,0.00,,,-99.99,Weather View 32 v60,2013-05-19 13:00:00,
2013-05-19 08:30:00,71.0,65.9,30.12,SSW,202,0.0,6.0,84,0.00,,,-99.99,Weather View 32 v60,2013-05-19 13:30:00,
2013-05-19 09:00:00,72.0,65.8,30.12,West,270,0.0,6.0,81,0.00,,,-99.99,Weather View 32 v60,2013-05-19 14:00:00,
2013-05-19 09:30:00,73.0,65.3,30.12,WSW,248,0.0,6.0,77,0.00,,,-99.99,Weather View 32 v60,2013-05-19 14:30:00,
2013-05-19 10:00:00,74.0,65.9,30.10,WSW,248,0.0,8.0,76,0.00,,,-99.99,Weather View 32 v60,2013-05-19 15:00:00,
2013-05-19 10:30:00,75.0,65.7,30.07,SW,225,0.0,10.0,73,0.00,,,-99.99,Weather View 32 v60,2013-05-19 15:30:00,
2013-05-19 11:00:00,76.0,65.9,30.06,SW,225,10.0,19.0,71,0.00,,,-99.99,Weather View 32 v60,2013-05-19 16:00:00,
2013-05-19 11:30:00,77.0,66.0,30.03,WSW,248,3.0,19.0,69,0.00,,,-99.99,Weather View 32 v60,2013-05-19 16:30:00,
2013-05-19 12:00:00,78.0,66.5,29.97,South,180,0.0,18.0,68,0.00,,,-99.99,Weather View 32 v60,2013-05-19 17:00:00,
2013-05-19 12:30:00,78.0,67.0,30.01,SW,225,11.0,19.0,69,0.00,,,-99.99,Weather View 32 v60,2013-05-19 17:30:00,
2013-05-19 13:00:00,79.0,66.6,30.01,SW,225,0.0,20.0,66,0.00,,,-99.99,Weather View 32 v60,2013-05-19 18:00:00,
2013-05-19 13:30:00,81.0,66.7,30.01,WSW,248,6.0,20.0,62,0.00,,,-99.99,Weather View 32 v60,2013-05-19 18:30:00,
2013-05-19 14:00:00,82.0,66.7,30.01,West,270,14.0,19.0,60,0.00,,,-99.99,Weather View 32 v60,2013-05-19 19:00:00,
2013-05-19 14:30:00,83.0,67.1,30.00,West,270,0.0,16.0,59,0.00,,,-99.99,Weather View 32 v60,2013-05-19 19:30:00,
2013-05-19 15:00:00,83.0,65.6,29.99,SSW,202,0.0,20.0,56,0.00,,,-99.99,Weather View 32 v60,2013-05-19 20:00:00,
2013-05-19 15:30:00,84.0,66.0,29.97,WSW,248,0.0,20.0,55,0.00,,,-99.99,Weather View 32 v60,2013-05-19 20:30:00,
2013-05-19 16:00:00,85.0,65.9,29.95,SW,225,6.0,23.0,53,0.00,,,-99.99,Weather View 32 v60,2013-05-19 21:00:00,
2013-05-19 16:30:00,81.0,62.2,29.91,South,180,0.0,23.0,53,0.00,,,-99.99,Weather View 32 v60,2013-05-19 21:30:00,
2013-05-19 17:00:00,79.0,59.8,29.91,WSW,248,0.0,23.0,52,0.00,,,-99.99,Weather View 32 v60,2013-05-19 22:00:00,
2013-05-19 17:30:00,78.0,60.0,29.92,SW,225,0.0,11.0,54,0.00,,,-99.99,Weather View 32 v60,2013-05-19 22:30:00,
2013-05-19 18:00:00,77.0,60.0,29.92,West,270,0.0,13.0,56,0.00,,,-99.99,Weather View 32 v60,2013-05-19 23:00:00,
2013-05-19 18:30:00,78.0,59.4,29.91,West,270,0.0,13.0,53,0.00,,,-99.99,Weather View 32 v60,2013-05-19 23:30:00,
2013-05-19 19:00:00,78.0,60.0,29.92,SSW,202,0.0,13.0,54,0.00,,,-99.99,Weather View 32 v60,2013-05-20 00:00:00,
2013-05-19 19:30:00,77.0,61.0,29.93,SSE,158,0.0,5.0,58,0.00,,,-99.99,Weather View 32 v60,2013-05-20 00:30:00,
2013-05-19 20:00:00,75.0,60.6,29.92,South,180,0.0,5.0,61,0.00,,,-99.99,Weather View 32 v60,2013-05-20 01:00:00,
2013-05-19 20:30:00,73.0,60.5,29.91,SE,135,0.0,9.0,65,0.00,,,-99.99,Weather View 32 v60,2013-05-20 01:30:00,
2013-05-19 21:00:00,74.0,64.8,29.89,South,180,7.0,11.0,73,0.00,,,-99.99,Weather View 32 v60,2013-05-20 02:00:00,
2013-05-19 21:30:00,73.0,65.3,29.88,South,180,0.0,13.0,77,0.00,,,-99.99,Weather View 32 v60,2013-05-20 02:30:00,
2013-05-19 22:00:00,74.0,65.9,29.86,SSW,202,0.0,14.0,76,0.00,,,-99.99,Weather View 32 v60,2013-05-20 03:00:00,
2013-05-19 22:30:00,75.0,64.9,29.86,South,180,0.0,23.0,71,0.00,,,-99.99,Weather View 32 v60,2013-05-20 03:30:00,
2013-05-19 23:00:00,76.0,63.8,29.87,SW,225,0.0,23.0,66,0.00,,,-99.99,Weather View 32 v60,2013-05-20 04:00:00,
2013-05-19 23:30:00,74.0,61.0,29.87,SW,225,0.0,20.0,64,0.00,,,-99.99,Weather View 32 v60,2013-05-20 04:30:00,